Probability
2 1 1 2 1 0 0 0 0 0 0 0 0 0 0 0 0 0 0 0 0 0 0 0 0 0 0 0 0 0 0 0 0 0 0 0 0 0 0 0 0 0 0
2 1 1 1 1 0 0 0 0 0 0 0 0 0 0 0 0 0 0 0 0 0 0 0 0 0 0 0 0 0 0 0 0 0 0 0 0 0 0 0 0 0 0
2 1 0 0 0 0 0 0 0 0 0 0 0 0 0 0 0 0 0 0 0 0 0 0 0 0 0 0 0 0 0 0 0 0 0 0 0 0 0 0 0 0 0
1 1 0 0 0 0 0 0 0 0 0 0 0 0 0 0 0 0 0 0 0 0 0 0 0 0 0 0 0 0 0 0 0 0 0 0 0 0 0 0 0 0 0
2 1 1 1 1 0 0 0 0 0 0 0 0 0 0 0 0 0 0 0 0 0 0 0 0 0 0 0 0 0 0 0 0 0 0 0 0 0 0 0 0 0 0
3 2 1 2 2 1 0 0 0 0 0 0 0 0 0 0 0 0 0 0 0 0 0 0 0 0 0 0 0 0 0 0 0 0 0 0 0 0 0 0 0 0 0
5 3 2 3 2 1 0 0 0 0 0 0 0 0 0 0 0 0 0 0 0 0 0 0 0 0 0 0 0 0 0 0 0 0 0 0 0 0 0 0 0 0 0
7 6 4 2 1 0 0 0 0 0 0 0 0 0 0 0 0 0 0 0 0 0 0 0 0 0 0 0 0 0 0 0 0 0 0 0 0 0 0 0 0 0 0
8 6 4 2 1 0 0 0 0 0 0 0 0 0 0 0 0 0 0 0 0 0 0 0 0 0 0 0 0 0 0 0 0 0 0 0 0 0 0 0 0 0 0
9 7 5 3 2 1 0 0 0 0 0 0 0 0 0 0 0 0 0 0 0 0 0 0 0 0 0 0 0 0 0 0 0 0 0 0 0 0 0 0 0 0 0
10 9 8 6 4 2 1 0 0 0 0 0 0 0 0 0 0 0 0 0 0 0 0 0 1 1 0 0 0 0 0 0 0 0 0 0 0 0 0 0 0 0 0
12 12 11 10 7 4 2 1 1 0 1 1 0 0 0 0 0 0 0 0 0 0 0 0 1 1 0 0 0 0 0 0 0 0 0 0 0 0 0 0 0 0 0
13 12 13 14 13 8 4 3 1 2 3 3 1 1 1 0 0 0 0 0 0 0 0 0 1 1 0 0 0 0 0 0 0 0 0 0 0 0 0 0 0 0 0
15 14 16 20 20 15 10 6 3 3 4 5 5 5 2 1 1 1 1 1 0 0 0 0 0 0 0 0 0 0 0 0 0 0 0 0 0 0 0 0 0 0 0
19 19 23 27 27 25 21 13 8 6 5 7 11 9 4 2 1 2 4 3 1 0 0 0 0 0 0 0 0 0 0 0 0 0 0 0 0 0 0 0 0 0 0
25 28 32 33 32 32 27 20 14 8 6 11 17 14 8 5 5 6 7 5 1 0 1 0 0 0 0 0 0 0 0 0 0 0 0 0 0 0 0 0 0 0 0
35 39 40 36 34 34 28 22 17 12 10 16 23 21 14 12 12 12 10 6 3 3 3 1 0 0 0 0 0 0 0 0 0 0 0 0 0 0 0 0 0 0 0
49 52 49 40 36 36 31 26 23 21 20 25 31 30 24 20 20 18 13 10 9 8 6 2 0 0 0 0 0 0 0 0 0 0 0 0 0 0 0 0 0 0 0
62 64 60 51 47 43 38 36 35 34 34 36 40 40 36 31 27 23 19 17 16 14 9 5 2 1 0 0 0 0 0 0 0 0 0 0 0 0 0 0 0 0 0
73 74 72 67 61 55 48 45 44 45 47 46 47 50 48 39 32 27 24 24 23 19 13 8 7 5 2 1 0 0 0 0 0 0 0 0 0 0 0 0 0 0 0
83 82 79 74 69 63 57 51 48 49 50 47 47 52 50 42 35 30 28 30 27 23 18 13 12 10 6 4 2 0 0 0 0 0 0 0 0 0 0 0 0 1 1
87 85 81 76 71 65 61 55 50 49 44 39 41 48 48 42 38 33 32 33 29 26 23 19 15 12 9 6 5 2 0 0 0 0 0 0 0 0 0 0 1 2 1
86 83 80 77 71 64 61 57 53 49 41 35 37 44 45 42 39 36 36 35 32 28 25 22 17 13 10 9 8 5 2 1 1 1 0 0 0 0 0 0 1 2 2
77 76 76 75 71 65 59 56 53 49 42 39 40 42 42 39 35 36 39 39 34 29 26 24 21 17 14 13 11 7 4 3 2 1 0 0 1 1 1 0 1 3 4
66 67 69 71 70 65 56 51 48 45 41 40 40 41 41 36 31 34 41 42 37 32 29 27 25 22 17 15 13 11 8 6 4 3 1 0 1 2 1 0 1 3 5
61 62 64 68 69 65 56 48 45 43 40 37 37 40 40 35 30 33 41 44 40 35 32 30 29 25 19 15 13 13 11 8 6 4 1 0 1 1 0 0 1 3 6
Wind_Speed
18 17 16 15 15 15 15 14 14 14 14 14 14 14 14 14 15 15 15 15 14 14 15 14 15 15 15 15 15 15 16 16 16 17 18 17 16 14 14 15 16 14 17
21 18 17 16 15 15 15 14 14 13 13 13 13 13 13 13 14 14 14 14 14 14 15 14 14 15 15 15 14 14 14 14 15 17 17 16 15 14 13 15 16 12 16
21 18 16 15 15 15 15 14 14 13 13 13 13 13 13 12 12 13 13 13 14 14 14 14 15 14 14 14 13 12 12 11 12 14 14 11 12 15 17 18 17 16 15
21 17 16 16 16 15 14 14 13 13 13 12 12 12 12 12 12 12 13 13 13 13 14 14 14 14 13 12 11 9 9 8 8 9 7 10 10 15 16 16 16 15 15
19 17 17 17 16 15 14 13 13 13 12 12 12 12 12 12 12 12 13 13 13 13 13 14 13 13 12 10 9 7 5 4 4 6 9 11 9 13 15 15 14 14 14
19 18 17 17 16 15 14 13 13 12 12 12 12 12 11 12 12 12 13 13 13 13 13 13 13 12 11 9 7 4 2 0 1 8 10 10 9 12 14 14 14 14 13
19 18 17 17 16 15 14 13 12 12 12 11 11 11 11 12 12 12 12 12 13 13 13 12 12 11 9 7 5 2 2 4 3 8 9 10 9 12 13 13 13 13 12
20 18 16 16 16 15 14 13 12 12 11 11 11 11 11 11 11 12 12 12 12 12 12 11 11 10 8 6 3 1 3 5 6 11 11 10 11 12 13 12 12 12 12
20 18 15 14 14 14 14 13 13 12 11 11 11 11 11 11 11 12 11 11 11 11 11 11 10 9 7 5 1 2 5 6 2 7 12 8 11 12 12 12 11 11 11
18 17 15 14 13 12 12 13 13 12 12 11 11 11 11 11 11 12 11 10 11 10 10 10 9 8 7 4 2 3 5 6 3 9 8 9 12 12 12 11 11 11 11
15 15 15 15 13 13 12 13 12 12 11 11 10 11 11 8 9 9 11 11 10 10 9 9 9 8 7 5 4 4 5 2 5 8 7 12 12 12 11 10 10 10 10
13 13 12 14 13 12 11 10 8 9 9 8 7 9 6 4 5 8 12 11 10 9 9 8 8 8 6 4 5 5 3 3 5 7 8 14 13 12 11 10 10 10 9
12 11 12 11 10 10 8 9 6 5 6 6 7 7 5 5 5 7 6 7 6 8 6 7 7 5 5 3 3 4 3 1 4 7 9 13 12 12 11 10 9 9 9
10 10 11 12 8 6 8 7 6 5 5 5 6 7 5 3 4 5 4 5 5 4 4 4 3 4 2 2 2 1 1 2 5 6 8 13 12 11 11 10 9 9 9
9 9 9 10 7 5 5 4 5 5 6 5 5 5 5 4 4 4 3 3 4 4 4 3 3 3 2 2 1 1 1 3 6 7 6 12 12 11 11 10 9 9 9
10 9 9 10 8 6 4 2 2 4 4 5 5 6 5 4 4 4 4 3 3 3 3 3 3 3 2 2 1 1 1 3 4 7 7 8 12 11 10 11 10 10 9
11 9 9 9 9 7 7 5 3 3 5 4 5 6 5 4 5 4 4 3 3 3 3 2 2 2 3 3 2 2 1 2 4 5 7 6 7 10 11 10 10 10 10
11 10 9 10 11 9 7 6 4 4 4 4 5 6 6 4 5 4 4 4 3 3 3 2 2 2 2 2 2 2 2 2 3 4 6 7 6 7 10 12 11 11 11
11 10 10 8 10 10 8 5 4 3 3 3 4 5 6 6 6 4 3 3 4 3 3 4 3 2 2 1 2 3 2 3 3 5 5 7 7 7 7 10 12 12 12
10 10 10 9 9 8 7 5 4 3 3 3 3 5 7 6 6 5 4 4 4 3 3 2 2 2 1 2 3 2 2 3 3 4 5 5 6 9 9 9 8 9 13
11 11 10 10 9 7 6 7 6 5 4 3 4 6 8 7 7 5 4 5 4 3 4 4 3 3 2 2 1 1 2 3 4 3 3 3 4 5 7 9 8 6 7
11 11 10 10 10 9 7 5 5 5 4 5 4 5 7 7 7 7 4 5 5 3 3 3 3 2 3 3 2 1 1 1 2 4 3 4 5 4 6 9 8 7 6
12 11 10 10 9 9 8 5 4 3 3 4 5 5 6 7 7 6 6 5 5 5 4 4 4 4 3 2 3 2 2 2 1 2 4 4 4 3 4 5 7 8 8
10 10 9 9 8 8 8 8 8 7 6 6 5 5 6 7 7 7 6 6 5 4 5 6 6 4 4 3 2 2 2 1 1 1 2 2 4 4 4 5 6 7 7
9 9 9 9 8 8 8 8 8 7 5 4 4 5 5 6 7 7 7 6 6 5 5 5 4 4 4 4 3 2 2 2 3 2 2 1 2 3 4 4 4 5 6
8 8 9 8 8 8 8 8 8 8 6 6 7 7 6 5 6 7 7 6 6 5 5 5 5 5 4 4 3 2 2 2 3 2 2 2 3 3 4 4 4 4 5
Wind_Direction
120 123 124 123 123 122 120 117 113 109 105 102 98 95 94 94 94 93 93 94 96 95 94 92 91 90 88 88 88 89 91 93 95 96 96 95 94 94 97 103 98 93 96
122 124 124 124 125 125 123 120 116 114 111 108 104 102 100 99 99 98 97 98 98 97 95 94 95 93 92 92 93 95 97 101 104 105 102 95 92 91 93 94 93 100 100
121 126 126 124 125 125 124 122 121 118 115 113 110 107 105 104 103 103 102 101 101 100 98 97 96 97 96 96 97 100 105 111 118 122 115 102 93 90 93 96 100 102 101
126 132 127 126 126 126 124 123 123 122 119 117 114 111 109 107 105 104 105 104 104 104 102 101 99 99 99 99 102 106 111 120 133 136 111 102 97 96 98 101 103 104 104
124 122 126 130 128 127 126 125 125 124 123 120 117 114 112 110 108 106 107 107 107 105 104 102 102 102 102 103 107 110 110 118 139 113 91 90 92 102 103 104 105 105 106
125 126 129 131 129 129 129 128 128 127 125 122 120 117 115 114 112 111 110 109 108 108 107 105 105 105 105 107 109 106 93 11 141 105 104 102 102 107 108 107 107 106 107
128 127 133 133 132 133 132 131 130 129 127 124 123 120 118 117 117 116 113 111 111 111 109 109 108 108 110 113 110 91 353 320 107 97 97 98 104 109 108 108 108 108 110
129 129 132 136 137 137 137 136 134 133 131 129 128 127 124 122 120 119 117 115 115 114 114 113 113 113 115 117 112 359 332 326 96 104 100 103 113 112 111 110 110 111 112
129 131 140 142 142 143 143 142 140 139 137 135 135 133 131 128 126 124 122 121 120 120 120 120 120 120 122 129 152 305 320 331 78 115 111 113 120 119 118 117 115 116 117
133 138 146 148 148 151 149 147 145 145 143 143 144 143 141 138 136 135 132 128 128 128 128 128 129 131 135 153 211 283 312 314 139 108 108 121 126 125 124 124 123 122 123
137 143 153 150 156 159 155 149 151 151 151 153 154 155 157 159 151 155 134 137 138 139 139 140 143 148 156 182 224 265 292 264 104 103 109 128 133 132 131 131 131 130 130
143 152 154 152 159 164 154 147 161 164 160 176 163 169 187 172 152 140 137 145 149 151 152 156 162 169 187 188 208 235 254 202 122 110 123 138 138 139 139 139 139 140 140
154 158 151 148 157 162 142 159 169 162 160 185 169 176 182 158 144 134 147 150 160 167 175 163 180 202 201 181 185 208 231 94 99 111 135 143 144 146 146 146 146 148 148
165 161 152 148 156 153 148 161 159 155 165 171 166 182 168 168 153 147 155 164 171 180 176 177 193 207 179 157 180 212 109 100 110 116 144 149 149 153 155 156 157 159 159
169 164 149 144 144 145 131 156 161 155 165 163 158 179 172 165 157 146 152 163 178 167 172 185 189 152 146 161 191 160 96 95 115 125 140 156 156 160 165 168 170 171 170
172 167 149 146 141 143 140 167 152 158 155 152 161 169 182 162 148 140 155 173 180 167 168 170 169 152 178 172 190 153 123 118 117 135 147 160 166 169 176 179 180 182 181
172 166 152 152 150 156 163 186 181 181 165 165 159 159 178 169 148 155 160 181 183 155 150 162 169 172 186 181 181 164 140 127 136 144 150 158 168 179 184 187 187 189 190
171 165 163 172 163 167 173 186 192 196 175 170 158 160 174 170 159 171 172 183 169 155 163 160 193 197 193 179 168 178 158 155 167 169 163 169 171 177 189 194 193 194 196
167 163 167 174 165 172 178 184 205 190 176 171 167 164 170 178 173 186 190 165 170 165 178 191 184 191 179 182 189 178 192 194 183 198 182 179 175 168 175 190 195 196 200
167 165 168 176 171 169 172 178 205 200 183 188 179 167 166 180 183 193 185 176 192 173 176 175 154 165 168 199 239 187 204 200 197 195 196 190 176 178 179 175 185 202 206
170 170 173 180 175 172 178 187 195 194 192 198 199 176 174 187 185 198 198 170 194 185 180 173 169 183 212 203 201 217 227 223 208 194 196 189 191 186 170 167 183 188 197
171 173 176 182 181 184 186 186 192 188 187 196 208 185 182 191 187 196 201 181 186 185 186 182 165 179 227 205 193 193 253 280 247 209 186 197 200 186 180 181 187 181 187
176 177 182 182 181 187 183 183 194 180 191 198 198 191 193 192 195 203 184 199 187 191 186 189 181 192 220 224 212 183 187 211 221 244 214 206 187 187 195 185 187 185 191
177 176 176 177 179 183 184 191 191 193 198 201 190 190 193 197 201 199 192 194 200 204 180 192 192 198 204 228 230 224 218 156 167 226 251 210 193 197 208 209 202 189 192
177 176 174 174 179 182 192 198 198 204 200 195 191 192 196 202 209 203 197 193 198 207 199 204 181 192 198 218 218 207 219 198 212 207 230 230 223 209 202 207 208 191 190
175 174 171 175 182 185 194 199 202 204 199 206 201 192 195 199 208 211 202 196 200 207 202 196 189 199 213 229 234 225 200 199 212 221 220 218 221 227 206 200 200 191 189